Flag for Greece Weather past 2 weeks in Alexandroupoli, Greece

Now
84 °F

Passing clouds.


Feels Like: 86 °F
Forecast: 68 / 89 °F
Wind: 5 mph from Southwest

Location: Alexandroupoli Airport

Current Time: Jul 7, 2015 at 12:20:43 PM

Latest Report: Jul 7, 2015 at 11:50 AM


Visibility: N/A

Pressure: 29.98 "Hg

Humidity: 51%

Dew point: 64 °F

Location of AlexandroupoliLocation

Historic Weather in Alexandroupoli — Graph

°F

Alexandroupoli temperature yesterday

Maximum temperature yesterday: 88 °F (at 5:50 PM)
Minimum temperature yesterday: 64 °F (at 6:50 AM)
Average temperature yesterday: 79 °F

Past Weeks' High & Low Weather Summary

 TemperatureHumidityPressure
High88 °F (Jul 6, 5:50 PM)94% (Jun 22, 3:50 PM)30.15 "Hg (Jun 22, 3:50 PM)
Low61 °F (Jun 22, 7:20 PM)29% (Jul 1, 3:50 PM)29.77 "Hg (Jun 26, 6:50 PM)
Average74 °F60%29.98 "Hg
* Reported Jun 22 10:20 AM — Jul 7 10:50 AM, Alexandroupoli, Weather by CustomWeather, © 2015

Note: Actual official high and low records may vary slightly from our data, if they occured in-between our weather recording intervals... More about our weather records

Advertising

Alexandroupoli weather history for previous 24 hours

 ConditionsComfort  
Time TempWeatherWind HumidityBarometerVisibility
10:50 AM
Tue, Jul 7
79 °FSunny.7 mph58%29.98 "Hg10 mi
10:20 AM79 °FSunny.3 mph58%30.01 "Hg10 mi
9:50 AM77 °FSunny.7 mph61%30.01 "Hg10 mi
9:20 AM75 °FSunny.7 mph61%30.01 "Hg10 mi
8:50 AM73 °FSunny.6 mph69%30.01 "Hg10 mi
8:20 AM72 °FSunny.No wind78%29.98 "Hg10 mi
7:50 AM70 °FSunny.No wind83%29.98 "Hg10 mi
6:50 AM66 °FClear.No wind83%29.98 "Hg10 mi
11:50 PM
Mon, Jul 6
75 °FPassing clouds.5 mph69%30.01 "HgN/A
11:20 PM77 °FPassing clouds.6 mph65%29.98 "HgN/A
10:50 PM79 °FPassing clouds.6 mph61%29.98 "HgN/A
10:20 PM73 °FPassing clouds.3 mph65%29.95 "HgN/A
9:50 PM81 °FPassing clouds.3 mph51%29.95 "HgN/A
9:20 PM81 °FPassing clouds.5 mph54%29.95 "HgN/A
8:50 PM82 °FPassing clouds.5 mph51%29.95 "HgN/A
8:20 PM82 °FPassing clouds.7 mph45%29.95 "HgN/A
7:50 PM84 °FPassing clouds.7 mph43%29.95 "HgN/A
7:20 PM86 °FPassing clouds.9 mph40%29.95 "HgN/A
6:50 PM86 °FPassing clouds.9 mph40%29.95 "HgN/A
6:20 PM86 °FPassing clouds.12 mph49%29.98 "HgN/A
5:50 PM88 °FPassing clouds.12 mph38%29.98 "HgN/A
4:50 PM86 °FPassing clouds.14 mph49%29.98 "HgN/A
4:20 PM86 °FPassing clouds.13 mph49%29.98 "HgN/A
3:50 PM84 °FPassing clouds.13 mph51%29.98 "HgN/A
3:20 PM84 °FPassing clouds.10 mph51%30.01 "HgN/A
2:50 PM84 °FPassing clouds.10 mph51%30.01 "HgN/A
2:20 PM82 °FPassing clouds.9 mph51%30.01 "HgN/A
1:50 PM82 °FPassing clouds.8 mph51%30.01 "HgN/A
1:20 PM81 °FPassing clouds.9 mph54%30.01 "HgN/A
12:50 PM81 °FPassing clouds.8 mph54%30.01 "HgN/A
12:20 PM79 °FPassing clouds.8 mph58%30.01 "HgN/A
Weather by CustomWeather, © 2015

See weather overviewHow to use our weather pages